Other Surface Observations
Issued by NWS Tucson, AZ

Home | Current Version | Previous Version | Text Only | Print | Product List | Glossary On
Versions: 1 2 3 4 5 6 7 8 9 10 11 12 13 14 15 16 17 18 19 20 21 22 23 24 25 26 27 28 29 30 31 32 33 34 35 36 37 38 39 40 41 42 43 44 45 46 47 48 49 50
000
SXUS55 KTWC 262215
OSOTWC

WEATHER ROUNDUP FOR SOUTHEAST ARIZONA
NATIONAL WEATHER SERVICE TUCSON AZ
315 PM MST FRI DEC 26 2014

AZZ504>506-514-262315-
LOCATION       SKY/WX    TMP DP  RH WIND       PRES   REMARKS
TUCSON         SUNNY     52  13  21 NW7       29.99S
DAVIS-MONTHAN  SUNNY     50  15  25 N9        29.97R
CHILDRENS PARK N/A       51  14  22 NW5               PIMA CO DEQ
ALVERNON/22ND  N/A      N/A N/A N/A N/A               PIMA CO DEQ
CHERRY/GLENN   N/A      N/A N/A N/A N/A               PIMA CO DEQ
TANGERINE      N/A       51 N/A N/A W4                PIMA CO DEQ
CONTL RANCH    N/A       52  14  22 NW4               PIMA CO DEQ
GRANT/1ST      N/A       51  15  23 NW5               PIMA CO DEQ
CRAYCROFT/22ND N/A      N/A N/A N/A N/A               PIMA CO DEQ
GOLFLINKS/KOLB N/A       50  13  22 W4                PIMA CO DEQ
AJO/12TH       N/A       51  12  21 W5                PIMA CO DEQ
SAGUARO EAST   N/A      N/A N/A N/A N/A               PIMA CO DEQ
FAIRGROUNDS    N/A       48 N/A N/A NW6               PIMA CO DEQ
SAGUARO        N/A       53  13  20 W7G13             *SABINO CYN
SAN CARLOS     N/A       52  13  21 SE4G11            *SAN CARLOS
GREEN VALLEY   N/A       51  16  25 NE6               PIMA CO DEQ
HORSE CAMP CYN N/A       44  10  25 W11G22            *ARAVAIPA CYN
RINCON MTNS    N/A       30  11  45 SW4G12            *NR MANNING CAMP
$$

AZZ509>511-262315-
LOCATION       SKY/WX    TMP DP  RH WIND       PRES   REMARKS
SAFFORD        SUNNY     50  10  20 NW8       29.93S
STRAY HORSE    N/A       29   4  33 W14G26            *
TRAIL CABIN    N/A       35   7  31 W8G16             *N OF GRANVILLE
BLACK HILLS    N/A       49  11  21 NW8G16            *N OF FT THOMAS
DRY LAKE       N/A       31   6  34 SW7G14            *NATANES MTNS
NOON CREEK     N/A       44  14  29 NE4G10            *PINALENO MTNS
COLUMBINE      N/A       25  -4  27 S5G12             *PINALENO MTNS
GUTHRIE        N/A       35  10  35 W11G20            *SW OF GUTHRIE
$$

AZZ502-503-513-262315-
LOCATION       SKY/WX    TMP DP  RH WIND       PRES   REMARKS
NOGALES        SUNNY     51  13  21 SW16      29.94S
SELLS          N/A       54  13  19 W7G12             *
SASABE         N/A       51  10  19 CALM              *ALTAR VLY
HOPKINS        N/A       40  21  46 W9G17             *SANTA RITA MTNS
CARR CYN       N/A       43  21  41 SW6G14            *W OF HEREFORD
$$

AZZ507-508-512-262315-
LOCATION       SKY/WX    TMP DP  RH WIND       PRES   REMARKS
SIERRA VISTA   MOSUNNY   48  17  29 W17G25    29.92S
DOUGLAS        MOSUNNY   52  25  35 W22G30    29.91F
EMPIRE MTNS    N/A       46  14  27 W11G20            *LAS CIENEGAS NCA
MULESHOE RANCH N/A       44   9  23 W10G20            *PRESERVE
HEADQUARTERS   N/A       41  17  38 W6G17             *CHIRICAHUA MTNS
$$

.............................NOTES.............................
THIS IS AN AUTOMATED COLLECTIVE WITH MINIMAL QUALITY CONTROL.
PIMA CO DEQ SITES HAVE NONSTANDARD WIND SENSOR HEIGHTS.
PIMA CO DEQ SITES DO NOT REPORT WIND GUSTS.
* INDICATES WIND SENSORS LOCATED AT 20 FEET INSTEAD OF 33 FEET.
..............................KEY..............................
SKY/WX - SKY CONDITION/WEATHER
TMP    - TEMPERATURE IN FAHRENHEIT
DP     - DEWPOINT IN FAHRENHEIT
RH     - RELATIVE HUMIDITY IN PERCENT
WIND   - DIRECTION AND SPEED IN MILES PER HOUR (MPH)
VRB    - VARIABLE WIND DIRECTION
PRES   - MEAN SEA LEVEL PRESSURE IN INCHES OF MERCURY
         F - FALLING PRESSURE   R - RISING PRESSURE
         S - STEADY PRESSURE
VSB    - VISIBILITY IN MILES
HX     - HEAT INDEX IN FAHRENHEIT
WCI    - WIND CHILL INDEX IN FAHRENHEIT
N/A    - NOT AVAILABLE
AFB    - AIR FORCE BASE
         DAVIS-MONTHAN IS DAVIS-MONTHAN AIR FORCE BASE
CYN    - CANYON
MTNS   - MOUNTAINS
NCA    - NATIONAL CONSERVATION AREA
NR     - NEAR
VLY    - VALLEY
CONTL  - CONTINENTAL
PIMA CO DEQ - PIMA COUNTY DEPT OF ENVIRONMENTAL QUALITY



USA.gov is the U.S. government's official web portal to all federal, state and local government web resources and services.